Lid_Strength_Index
11 9 9 9 8 9 9 10 9 8 8 8 7 7 7 8 8 9 9 9 10 10
12 12 11 10 9 10 9 8 9 9 9 9 8 8 8 10 9 10 10 10 11 12
13 13 13 12 12 12 12 11 11 12 12 12 12 11 11 12 12 12 13 13 13 14
15 14 14 14 14 14 14 13 13 13 13 14 14 13 13 14 14 14 15 14 15 16
15 15 15 16 16 15 15 15 15 15 15 15 15 15 15 16 16 16 17 17 17 17
16 16 17 17 16 16 16 16 16 16 16 16 16 16 16 17 17 18 18 17 17 17
17 17 17 17 17 17 17 16 16 16 16 16 16 17 17 17 18 18 17 16 17 17
17 17 17 17 17 17 17 17 16 16 16 16 16 17 17 17 17 17 18 17 17 16
16 16 16 16 16 16 16 16 16 16 16 15 15 13 14 15 16 16 16 17 17 17
17 17 18 17 17 17 17 17 17 16 16 16 15 13 14 14 16 16 17 16 16 17
17 18 18 18 18 18 17 18 17 17 16 16 15 14 14 15 16 17 17 17 16 16
18 18 18 18 18 18 18 18 17 17 17 16 16 14 14 16 17 17 17 16 16 15
18 18 19 18 18 18 17 17 16 17 17 18 16 14 14 15 15 17 16 16 16 14
18 18 18 18 18 18 18 18 18 18 18 18 18 15 14 14 15 15 16 17 17 16